Regional Weather Roundup
Issued by NWS

Home | Current Version | Previous Version | Text Only | Print | Product List | Glossary Off
Versions: 1 2 3 4 5 6 7 8 9 10 11 12 13 14 15 16 17 18 19 20 21 22 23 24 25 26 27 28 29 30 31 32 33 34 35 36 37 38 39 40 41 42 43 44 45 46 47 48 49 50

000
ASUS43 KFSD 311710
RWRSD

WEATHER ROUNDUP FOR SOUTH DAKOTA
NATIONAL WEATHER SERVICE SIOUX FALLS SD
1200 PM CDT FRI OCT 31 2014

NOTE: "FAIR" INDICATES FEW OR NO CLOUDS BELOW 12,000 FEET WITH NO
SIGNIFICANT WEATHER AND/OR OBSTRUCTIONS TO VISIBILITY.


SDZ001>005-009-010-012>017-311800-
NORTHWEST AND NORTH CENTRAL SOUTH DAKOTA

CITY           SKY/WX    TMP DP  RH WIND       PRES   REMARKS
BUFFALO          N/A     34  29  82 SE21G33   30.15F WCI  22
FAITH            N/A     33  22  63 S23G30    30.35F WCI  21
MOBRIDGE       SUNNY     34  20  56 S18       30.47F WCI  23
$$

SDZ012>016-024>037-041>051-057-063-072>074-311800-
SOUTHWEST AND SOUTH CENTRAL SOUTH DAKOTA

CITY           SKY/WX    TMP DP  RH WIND       PRES   REMARKS
RAPID CTY ARPT CLOUDY    34  29  82 S24G30    30.30F WCI  21
PIERRE         SUNNY     32  20  61 S14       30.51F WCI  22
CUSTER         SUNNY     40  28  62 S10G20    30.26F
ELLSWORTH AFB  PTSUNNY   34  30  85 S24G36    30.26  WCI  22
PHILIP         CLOUDY    36  25  64 SE13      30.43F
PINE RIDGE     MOSUNNY   37  28  70 S13G20    30.35F
SPEARFISH      FAIR      37  37 100 NE7       30.15F
WINNER         FAIR      36  18  48 SE10G18   30.53S
$$

SDZ004>011-016>023-039-040-311800-
NORTHEAST SOUTH DAKOTA

CITY           SKY/WX    TMP DP  RH WIND       PRES   REMARKS
ABERDEEN       SUNNY     32  19  58 SE7       30.58F WCI  26
WATERTOWN      SUNNY     31  20  63 SE7       30.55F WCI  24
SISSETON         N/A     30  22  72 SE6       30.58F WCI  24
$$

SDZ017-020-022-023-036>040-048>070-311800-
SOUTHEAST SOUTH DAKOTA

CITY           SKY/WX    TMP DP  RH WIND       PRES   REMARKS
SIOUX FALLS    MOSUNNY   35  21  56 NE6       30.59S
HURON          SUNNY     31  19  61 VRB5      30.59F WCI  26
CHAMBERLAIN    SUNNY     32  19  57 SE9       30.56F WCI  24
MITCHELL       SUNNY     31  22  69 VRB3      30.61F
YANKTON        SUNNY     34  19  55 E5        30.61S WCI  30
$$

ABBREVIATIONS USED IN REMARKS
   TC - TEMPERATURE IN CELSIUS
  WCI - WIND CHILL INDEX
   HX - HEAT INDEX
  VSB - VISIBILITY




USA.gov is the U.S. government's official web portal to all federal, state and local government web resources and services.